Tracking 23752 objects as of 24-Oct-2021
HD Live streaming from Space Station
objects crossing your sky now

BREEZE-M DEB

Track BREEZE-M DEB now!
10-day predictions


NORAD ID: 38601
Int'l Code: 2008-011AY
Perigee: 274.4 km
Apogee: 17,760.0 km
Inclination: 47.9 °
Period: 316.6 minutes
Semi major axis: 15388 km
RCS: 0.2708 m2 (medium)
Launch date: March 14, 2008
Source: Commonwealth of Independent States (former USSR) (CIS)
Launch site: TYURATAM MISSILE AND SPACE COMPLEX (TTMTR)

Note: This is SATELLITE DEBRIS
aabbcc
Your satellite tracking list
Your tracking list is empty




NASA's NSSDC Master Catalog

Two Line Element Set (TLE):
1 38601U 08011AY  21296.13526220  .00015841  00000-0  19989-2 0  9996
2 38601  47.9476 201.9079 5681482 106.9826 320.1087  4.54798834154813
Source of the keplerian elements: AFSPC